Terug naar catalogus

STARLINK-36941

ActiefCommunicatieVLEO
NORAD 67991·PAYLOAD·🇺🇸 United States

Gelanceerd Feb 27, 2026 vanaf Vandenberg Space Force Base

Loading…

Volgende Passages (komende 24 uur)

TLE

VersSource: CelesTrak SupGP

Epoch: Sep 14, 2026, 21:19 UTC

1 67991C 26039F   26257.88868056  .00039376  00000+0  14267-2 0  2579
2 67991  43.0016  60.6096 0001568 278.3119 210.8999 15.27546987    19

Volg STARLINK-36941 in realtime met AllMySat

Download on the App Store